User: anonymous   Login
Location: Brede
(50.9167°N, 0.6000°E)
Time: 17:02:18
(UTC+00:00)
Language:

Cosmos 1602 Rocket - Orbit

View from above orbital plane
View from above orbital plane
View from above satellite
View from above satellite

Ground track
Ground track

The orbit data is extracted from the following two-line orbital elements,

1 15332U 84105B   20298.47921341  .00000100  00000-0  92668-5 0  9991
2 15332  82.5315 122.6423 0019702 291.0627 128.7822 14.83431339948231
Epoch (UTC): 24 October 2020 11:30:04
Eccentricity: 0.0019702
inclination: 82.5315°
perigee height: 605 km
apogee height: 632 km
right ascension of ascending node: 122.6423°
argument of perigee: 291.0627°
revolutions per day: 14.83431339
mean anomaly at epoch: 128.7822°
orbit number at epoch: 94823

The dashed part of the orbit path shows where the satellite is in the earth's shadow,  

DLR